Location: Beang
(6.6177°N, 10.9863°W)
Time: 23:06:43
(UTC+00:00)

Delta 2 Rocket - Pass Details

Date: 07 June 2020
Orbit: 416 x 807 km, 35.6° (Epoch: 10 July)

Event Time Altitude Azimuth Distance (km) Brightness Sun altitude
Exits shadow 04:53:35 40° 195° (SSW) 1,110 4.5 -22.1°
Maximum altitude 04:55:14 56° 141° (SE) 912 4.4 -21.7°
Drops below altitude 10° 05:00:46 10° 64° (ENE) 2,362 7.7 -20.5°
Sets 05:03:22 0° 60° (ENE) 3,303 8.9 -19.9°
